Weather History for Kirksville, MO

Change the Weather History Date:

Monday, November 5, 2012

  Actual Average Record
Temperature  
Mean Temperature 39 °F 46 °F  
Max Temperature 40 °F 56 °F 77 °F (1924)
Min Temperature 38 °F 35 °F 16 °F (1951)
Degree Days  
Heating Degree Days 26 19  
Month to date heating degree days 114 93  
Since 1 July heating degree days 693 582  
Cooling Degree Days 0 0  
Month to date cooling degree days 0 0  
Year to date cooling degree days 1319 939  
Moisture  
Dew Point 38 °F    
Average Humidity 96    
Maximum Humidity 100    
Minimum Humidity 92    
Precipitation  
Precipitation 0.32 in 0.13 in 1.14 in (1948)
Month to date precipitation 0.42 0.63  
Year to date precipitation 25.11 35.47  
Sea Level Pressure  
Sea Level Pressure 30.09 in    
Wind  
Wind Speed 10 mph (East)    
Max Wind Speed 16 mph    
Max Gust Speed 20 mph    
Visibility 3 miles    
Events Rain    
T = Trace of Precipitation, MM = Missing Value Source: NWS Daily Summary

Daily Weather History Graph

Daily Weather History Graph

Search for Another Location

Airport:

Trip Planner

Search our weather history database for the weather conditions in past years. The results will help you decide how hot, cold, wet, or windy it might be!

Date:

Astronomy

Nov. 05, 2012 Rise Set
Actual Time 6:44 AM CST 5:02 PM CST
Civil Twilight 6:16 AM CST 5:30 PM CST
Nautical Twilight 5:43 AM CST 6:03 PM CST
Astronomical Twilight 5:12 AM CST 6:34 PM CST
Moon 10:40 PM CST (11/5) 12:04 PM CST (11/5)
Length of Visible Light 11h 14m
Length of Day
10h 17m
Waning Gibbous, 62% of the Moon is Illuminated
Nov 5
Waning Gibbous
Nov 6
Last Quarter
Nov 13
New
Nov 20
First Quarter
Nov 28
Full

Hourly Weather History & Observations

Time (CST) Temp. Windchill Dew Point Humidity Pressure Visibility Wind Dir Wind Speed Gust Speed Precip Events Conditions
12:55 AM 39.9 °F 34.5 °F 37.9 °F 93% 30.12 in 4.0 mi ESE 8.1 mph - 0.03 in Rain Light Rain
1:55 AM 39.9 °F 33.9 °F 37.9 °F 93% 30.10 in 4.0 mi ESE 9.2 mph - 0.05 in Rain Light Rain
2:55 AM 39.0 °F 31.8 °F 37.9 °F 96% 30.08 in 3.0 mi East 11.5 mph - 0.05 in Rain Light Rain
3:19 AM 39.2 °F 33.0 °F 37.4 °F 93% 30.05 in 3.0 mi East 9.2 mph - 0.02 in Rain Light Rain
3:53 AM 39.2 °F 31.6 °F 37.4 °F 93% 30.04 in 3.0 mi East 12.7 mph - 0.05 in Rain Light Rain
3:55 AM 39.0 °F 31.4 °F 37.9 °F 96% 30.07 in 3.0 mi East 12.7 mph - 0.05 in Rain Light Rain
4:06 AM 39.2 °F 32.5 °F 37.4 °F 93% 30.04 in 3.0 mi East 10.4 mph - 0.01 in Rain Light Rain
4:55 AM 39.0 °F 31.0 °F 37.9 °F 96% 30.06 in 3.0 mi East 13.8 mph 19.6 mph 0.04 in Rain Light Rain
5:28 AM 39.2 °F 31.6 °F 37.4 °F 93% 30.04 in 2.5 mi East 12.7 mph - 0.02 in Rain Light Rain
5:55 AM 39.0 °F 31.4 °F 37.9 °F 96% 30.06 in 2.5 mi East 12.7 mph 18.4 mph 0.04 in Rain Light Rain
6:32 AM 39.2 °F 32.5 °F 37.4 °F 93% 30.03 in 3.0 mi East 10.4 mph - 0.02 in Rain Light Rain
6:42 AM 39.2 °F 33.0 °F 37.4 °F 93% 30.03 in 2.5 mi East 9.2 mph - 0.03 in Rain Light Rain
6:55 AM 39.0 °F 32.8 °F 37.9 °F 96% 30.06 in 2.5 mi East 9.2 mph - 0.03 in Rain Light Rain
7:07 AM 39.2 °F 32.5 °F 37.4 °F 93% 30.04 in 3.0 mi East 10.4 mph - 0.00 in Rain Light Rain
7:21 AM 39.2 °F 31.6 °F 37.4 °F 93% 30.04 in 2.5 mi East 12.7 mph - 0.01 in Rain Light Rain
7:36 AM 39.2 °F 32.0 °F 37.4 °F 93% 30.04 in 1.8 mi East 11.5 mph - 0.02 in Rain Light Rain
7:55 AM 39.0 °F 31.8 °F 37.9 °F 96% 30.08 in 2.0 mi East 11.5 mph - 0.02 in Rain Light Rain
8:27 AM 39.2 °F 32.5 °F 39.2 °F 100% 30.05 in 1.8 mi East 10.4 mph - 0.00 in Rain Light Rain
8:38 AM 39.2 °F 31.2 °F 39.2 °F 100% 30.06 in 2.0 mi East 13.8 mph - 0.00 in Rain Light Rain
8:55 AM 39.0 °F 31.4 °F 39.0 °F 100% 30.09 in 2.0 mi East 12.7 mph - 0.01 in   Overcast
9:55 AM 39.9 °F 33.4 °F 37.9 °F 93% 30.10 in 2.5 mi East 10.4 mph 18.4 mph N/A   Overcast
10:14 AM 39.2 °F 32.5 °F 39.2 °F 100% 30.08 in 3.0 mi East 10.4 mph - N/A   Overcast
10:55 AM 39.9 °F 32.9 °F 39.0 °F 97% 30.11 in 3.0 mi East 11.5 mph - N/A   Overcast
11:06 AM 39.2 °F 33.0 °F 39.2 °F 100% 30.09 in 2.5 mi East 9.2 mph 18.4 mph N/A   Overcast
11:30 AM 39.2 °F 31.2 °F 39.2 °F 100% 30.08 in 3.0 mi East 13.8 mph 19.6 mph N/A   Overcast
11:55 AM 39.9 °F 31.8 °F 39.9 °F 100% 30.11 in 3.0 mi East 15.0 mph 18.4 mph N/A   Overcast
12:06 PM 39.2 °F 32.0 °F 37.4 °F 93% 30.08 in 2.5 mi East 11.5 mph - N/A   Overcast
12:14 PM 39.2 °F 31.6 °F 37.4 °F 93% 30.08 in 3.0 mi East 12.7 mph - N/A   Overcast
12:55 PM 39.9 °F 32.5 °F 37.9 °F 93% 30.10 in 4.0 mi East 12.7 mph 19.6 mph 0.00 in   Overcast
1:55 PM 39.9 °F 33.4 °F 39.9 °F 100% 30.10 in 4.0 mi East 10.4 mph - N/A   Overcast
2:55 PM 39.9 °F 34.5 °F 37.9 °F 93% 30.11 in 5.0 mi East 8.1 mph - N/A   Overcast
3:55 PM 39.9 °F 34.5 °F 37.9 °F 93% 30.12 in 4.0 mi ENE 8.1 mph - N/A   Overcast
4:55 PM 39.9 °F 34.5 °F 37.9 °F 93% 30.13 in 3.0 mi ENE 8.1 mph - N/A   Overcast
5:23 PM 39.2 °F 33.6 °F 37.4 °F 93% 30.10 in 2.5 mi ENE 8.1 mph - N/A   Overcast
5:45 PM 39.2 °F 33.6 °F 37.4 °F 93% 30.10 in 1.8 mi ENE 8.1 mph - N/A   Overcast
5:55 PM 39.0 °F 32.8 °F 37.9 °F 96% 30.14 in 1.8 mi ENE 9.2 mph - N/A   Overcast
6:07 PM 39.2 °F 33.0 °F 37.4 °F 93% 30.12 in 2.0 mi ENE 9.2 mph - N/A   Overcast
6:55 PM 39.0 °F 34.8 °F 37.9 °F 96% 30.15 in 2.0 mi ENE 5.8 mph - N/A   Overcast
7:02 PM 39.2 °F 33.0 °F 37.4 °F 93% 30.12 in 1.8 mi NE 9.2 mph - N/A   Overcast
7:18 PM 39.2 °F 34.2 °F 37.4 °F 93% 30.13 in 2.0 mi ENE 6.9 mph - N/A   Overcast
7:55 PM 39.0 °F 34.8 °F 37.9 °F 96% 30.16 in 2.5 mi East 5.8 mph - N/A   Overcast
8:27 PM 37.4 °F 33.8 °F 37.4 °F 100% 30.12 in 2.5 mi ENE 4.6 mph - N/A   Overcast
8:42 PM 37.4 °F 32.1 °F 37.4 °F 100% 30.12 in 3.0 mi ENE 6.9 mph - N/A   Overcast
8:55 PM 37.9 °F 31.5 °F 37.0 °F 97% 30.14 in 2.5 mi East 9.2 mph - N/A   Overcast
9:55 PM 37.9 °F 33.5 °F 37.0 °F 97% 30.13 in 2.5 mi East 5.8 mph - N/A   Overcast
10:18 PM 37.4 °F 32.8 °F 37.4 °F 100% 30.10 in 3.0 mi East 5.8 mph - N/A   Overcast
10:55 PM 37.9 °F 34.4 °F 37.0 °F 97% 30.13 in 3.0 mi East 4.6 mph - N/A   Overcast
11:09 PM 37.4 °F 34.9 °F 37.4 °F 100% 30.10 in 2.5 mi ESE 3.5 mph - N/A   Overcast
11:21 PM 37.4 °F 33.8 °F 37.4 °F 100% 30.10 in 3.0 mi ESE 4.6 mph - N/A   Overcast
11:41 PM 37.4 °F - 37.4 °F 100% 30.10 in 2.5 mi Calm Calm - N/A   Overcast
11:48 PM 37.4 °F 34.9 °F 37.4 °F 100% 30.10 in 3.0 mi ESE 3.5 mph - N/A   Overcast
11:55 PM 37.9 °F 35.5 °F 37.0 °F 97% 30.13 in 3.0 mi SE 3.5 mph - N/A   Overcast